TimeEST,TemperatureF,Dew PointF,Humidity,Sea Level PressureIn,VisibilityMPH,Wind Direction,Wind SpeedMPH,Gust SpeedMPH,PrecipitationIn,Events,Conditions,WindDirDegrees,DateUTC
12:53 AM,34.0,19.9,56,30.33,10.0,West,5.8,-,N/A,,Clear,280,2012-12-06 05:53:00
1:53 AM,32.0,21.0,64,30.33,10.0,NNW,4.6,-,N/A,,Clear,340,2012-12-06 06:53:00
2:53 AM,32.0,21.0,64,30.34,10.0,North,5.8,-,N/A,,Clear,360,2012-12-06 07:53:00
3:53 AM,30.9,19.9,64,30.34,10.0,NNW,3.5,-,N/A,,Clear,330,2012-12-06 08:53:00
4:53 AM,28.0,19.9,72,30.34,10.0,Calm,Calm,-,N/A,,Clear,0,2012-12-06 09:53:00
5:53 AM,25.0,19.0,78,30.37,10.0,West,3.5,-,N/A,,Clear,260,2012-12-06 10:53:00
6:53 AM,24.1,18.0,77,30.37,10.0,NW,3.5,-,N/A,,Clear,310,2012-12-06 11:53:00
7:53 AM,24.1,19.0,81,30.38,10.0,Calm,Calm,-,N/A,,Clear,0,2012-12-06 12:53:00
8:53 AM,33.1,21.9,64,30.38,10.0,Calm,Calm,-,N/A,,Clear,0,2012-12-06 13:53:00
9:53 AM,36.0,19.9,52,30.39,10.0,NNE,3.5,-,N/A,,Clear,30,2012-12-06 14:53:00
10:53 AM,37.9,19.9,48,30.38,10.0,Calm,Calm,-,N/A,,Clear,0,2012-12-06 15:53:00
11:53 AM,39.0,19.9,46,30.34,10.0,Calm,Calm,-,N/A,,Clear,0,2012-12-06 16:53:00
12:53 PM,41.0,19.9,43,30.30,10.0,Variable,3.5,-,N/A,,Clear,0,2012-12-06 17:53:00
1:53 PM,41.0,21.0,45,30.28,10.0,Variable,3.5,-,N/A,,Clear,0,2012-12-06 18:53:00
2:53 PM,43.0,21.0,42,30.26,10.0,SE,3.5,-,N/A,,Clear,130,2012-12-06 19:53:00
3:53 PM,41.0,21.9,47,30.26,10.0,SSE,5.8,-,N/A,,Clear,160,2012-12-06 20:53:00
4:53 PM,39.9,21.9,49,30.26,10.0,Calm,Calm,-,N/A,,Clear,0,2012-12-06 21:53:00
5:53 PM,36.0,21.9,57,30.25,10.0,East,3.5,-,N/A,,Clear,90,2012-12-06 22:53:00
6:53 PM,36.0,21.0,55,30.26,10.0,Calm,Calm,-,N/A,,Clear,0,2012-12-06 23:53:00
7:53 PM,35.1,21.0,57,30.24,10.0,Calm,Calm,-,N/A,,Clear,0,2012-12-07 00:53:00
8:53 PM,33.1,23.0,66,30.24,10.0,Calm,Calm,-,N/A,,Clear,0,2012-12-07 01:53:00
9:53 PM,33.1,21.9,64,30.23,10.0,Calm,Calm,-,N/A,,Clear,0,2012-12-07 02:53:00
10:53 PM,33.1,24.1,70,30.23,10.0,Calm,Calm,-,N/A,,Scattered Clouds,0,2012-12-07 03:53:00
11:53 PM,33.1,25.0,72,30.21,10.0,Calm,Calm,-,N/A,,Partly Cloudy,0,2012-12-07 04:53:00